DLH648 EDDF-UAAA

Flight info

Callsign DLH648
Flight time N/A
Altitude 31000
Route CINDY Z74 HAREM DCT ASLEP DCT TAKUT DCT DINKU L603 BESNI/N0469F370 L605 MIQ DCT ALUTU DCT BIBAG L605 ESEGA DCT VELOM DCT STEIN DCT SIRDU DCT GITAS DCT TEGRI/N0467F390 DCT LUGEB DCT UDROS DCT CRM UM11 REBLO DCT TABAS DCT MATAL T916 BALUN/K0878F390 T916 UNVUB/K0872F410 T916 TUROK L855 TIPSA
Aircraft A343/H-SDE2E3FGHIJ4J5M1RWXY/LB1D1

Departure

Time 2026-04-17 10:29
Airport Frankfurt Main Airport (EDDF)

Arrival

Time N/A
Airport Almaty International Airport (UAAA)
Time Latitude Longitude Altitude Speed Heading
2026-04-17 10:01 50.04816 8.57175 360 ft 0 kts 115°
2026-04-17 10:18 50.04822 8.57155 366 ft 4 kts 114°
2026-04-17 10:18 50.04834 8.57117 365 ft 4 kts 118°
2026-04-17 10:18 50.04848 8.57084 368 ft 4 kts 146°
2026-04-17 10:19 50.04856 8.57077 363 ft 2 kts 156°
2026-04-17 10:19 50.04835 8.57069 362 ft 4 kts 207°
2026-04-17 10:19 50.04812 8.57047 366 ft 4 kts 208°
2026-04-17 10:19 50.04801 8.57039 364 ft 0 kts 205°
2026-04-17 10:22 50.04795 8.57035 364 ft 3 kts 204°
2026-04-17 10:22 50.04751 8.57004 367 ft 10 kts 204°
2026-04-17 10:22 50.04659 8.56938 367 ft 18 kts 204°
2026-04-17 10:23 50.04533 8.56883 363 ft 18 kts 192°
2026-04-17 10:23 50.04443 8.56784 370 ft 17 kts 245°
2026-04-17 10:23 50.04392 8.56575 366 ft 24 kts 250°
2026-04-17 10:23 50.04328 8.56303 364 ft 30 kts 248°
2026-04-17 10:24 50.04267 8.56056 365 ft 24 kts 250°
2026-04-17 10:24 50.04210 8.55816 361 ft 24 kts 250°
2026-04-17 10:24 50.04152 8.55573 364 ft 25 kts 250°
2026-04-17 10:24 50.04089 8.55308 364 ft 26 kts 249°
2026-04-17 10:25 50.04028 8.55056 360 ft 25 kts 250°
2026-04-17 10:25 50.03969 8.54807 362 ft 25 kts 250°
2026-04-17 10:25 50.03898 8.54513 356 ft 30 kts 249°
2026-04-17 10:25 50.03803 8.54235 359 ft 28 kts 241°
2026-04-17 10:26 50.03737 8.53962 353 ft 27 kts 250°
2026-04-17 10:26 50.03659 8.53635 354 ft 39 kts 249°
2026-04-17 10:26 50.03563 8.53247 351 ft 38 kts 250°
2026-04-17 10:26 50.03474 8.52885 337 ft 21 kts 246°
2026-04-17 10:27 50.03435 8.52737 335 ft 7 kts 249°
2026-04-17 10:27 50.03417 8.52665 335 ft 8 kts 249°
2026-04-17 10:27 50.03386 8.52606 336 ft 8 kts 212°
2026-04-17 10:27 50.03309 8.52597 337 ft 21 kts 181°
2026-04-17 10:28 50.02981 8.52596 338 ft 74 kts 178°
2026-04-17 10:28 50.02286 8.52605 336 ft 121 kts 180°
2026-04-17 10:28 50.01313 8.52615 352 ft 157 kts 180°
2026-04-17 10:28 50.00883 8.52621 483 ft 160 kts 180°
2026-04-17 10:29 49.99699 8.52643 688 ft 180 kts 179°
2026-04-17 10:29 49.98458 8.52684 1283 ft 179 kts 178°
2026-04-17 10:29 49.97185 8.52778 1754 ft 192 kts 177°
2026-04-17 10:29 49.95742 8.52893 1990 ft 223 kts 177°
2026-04-17 10:30 49.94155 8.53014 2674 ft 231 kts 178°
2026-04-17 10:30 49.92550 8.53133 3571 ft 231 kts 178°
2026-04-17 10:30 49.90926 8.53254 4387 ft 236 kts 178°
2026-04-17 10:30 49.89269 8.53374 5226 ft 240 kts 178°
2026-04-17 10:31 49.87591 8.53492 6047 ft 242 kts 178°
2026-04-17 10:31 49.85902 8.53610 6889 ft 245 kts 178°
2026-04-17 10:31 49.84180 8.53729 7632 ft 250 kts 178°
2026-04-17 10:31 49.82427 8.53852 8362 ft 255 kts 178°
2026-04-17 10:32 49.80652 8.54201 9064 ft 261 kts 164°
2026-04-17 10:32 49.79066 8.55590 9760 ft 267 kts 135°
2026-04-17 10:32 49.78079 8.58074 10238 ft 281 kts 104°
2026-04-17 10:32 49.77819 8.61153 10580 ft 298 kts 92°
2026-04-17 10:33 49.77740 8.64454 10849 ft 317 kts 91°
2026-04-17 10:33 49.77657 8.67959 11128 ft 334 kts 92°
2026-04-17 10:33 49.77553 8.71636 11399 ft 351 kts 92°
2026-04-17 10:33 49.77431 8.75492 11676 ft 366 kts 92°
2026-04-17 10:34 49.77302 8.79431 12095 ft 376 kts 92°
2026-04-17 10:34 49.77156 8.83558 12670 ft 382 kts 92°
2026-04-17 10:34 49.77010 8.87635 13258 ft 388 kts 92°
2026-04-17 10:34 49.76858 8.91823 13886 ft 392 kts 92°
2026-04-17 10:35 49.76703 8.96059 14452 ft 397 kts 92°
2026-04-17 10:35 49.76545 9.00340 15022 ft 401 kts 92°
2026-04-17 10:35 49.76383 9.04667 15591 ft 405 kts 92°
2026-04-17 10:35 49.76146 9.09027 16117 ft 411 kts 97°
2026-04-17 10:36 49.75564 9.13384 16665 ft 416 kts 102°
2026-04-17 10:36 49.74674 9.17659 17223 ft 421 kts 114°
2026-04-17 10:36 49.73167 9.21559 17775 ft 425 kts 125°
2026-04-17 10:36 49.71342 9.25182 18349 ft 429 kts 130°
2026-04-17 10:37 49.69375 9.28671 18850 ft 433 kts 132°
2026-04-17 10:37 49.67340 9.32127 19350 ft 436 kts 133°
2026-04-17 10:37 49.65279 9.35599 19831 ft 440 kts 132°
2026-04-17 10:37 49.63303 9.39213 20308 ft 443 kts 126°
2026-04-17 10:38 49.61695 9.43289 20786 ft 446 kts 115°
2026-04-17 10:38 49.60465 9.47693 21253 ft 449 kts 110°
2026-04-17 10:38 49.59389 9.52230 21701 ft 453 kts 108°
2026-04-17 10:38 49.58394 9.56849 22162 ft 456 kts 107°
2026-04-17 10:39 49.57425 9.61522 22618 ft 459 kts 106°
2026-04-17 10:39 49.56454 9.66217 23052 ft 462 kts 106°
2026-04-17 10:39 49.55480 9.70874 23504 ft 464 kts 107°
2026-04-17 10:39 49.54473 9.75618 23908 ft 468 kts 107°
2026-04-17 10:40 49.53336 9.80332 24255 ft 471 kts 113°
2026-04-17 10:40 49.51780 9.84782 24614 ft 475 kts 123°
2026-04-17 10:40 49.49871 9.88943 24986 ft 477 kts 126°
2026-04-17 10:40 49.47835 9.92998 25270 ft 481 kts 128°
2026-04-17 10:41 49.45724 9.97006 25611 ft 484 kts 129°
2026-04-17 10:41 49.43578 10.01002 25976 ft 486 kts 129°
2026-04-17 10:41 49.41418 10.05006 26295 ft 488 kts 129°
2026-04-17 10:41 49.39252 10.09032 26625 ft 490 kts 129°
2026-04-17 10:42 49.37080 10.13087 26943 ft 492 kts 129°
2026-04-17 10:42 49.34907 10.17164 27247 ft 494 kts 129°
2026-04-17 10:42 49.32727 10.21252 27572 ft 497 kts 129°
2026-04-17 10:42 49.30539 10.25354 27873 ft 498 kts 129°
2026-04-17 10:43 49.28337 10.29476 28153 ft 501 kts 129°
2026-04-17 10:43 49.26126 10.33608 28454 ft 503 kts 129°
2026-04-17 10:43 49.23856 10.37700 28734 ft 505 kts 133°
2026-04-17 10:43 49.21405 10.41564 29008 ft 507 kts 135°
2026-04-17 10:44 49.18903 10.45372 29297 ft 509 kts 135°
2026-04-17 10:44 49.16372 10.49155 29626 ft 509 kts 136°
2026-04-17 10:44 49.13834 10.52911 30032 ft 508 kts 136°
2026-04-17 10:44 49.11296 10.56656 30400 ft 507 kts 136°
2026-04-17 10:45 49.08760 10.60396 30698 ft 507 kts 136°
2026-04-17 10:45 49.06260 10.64080 30982 ft 507 kts 136°
2026-04-17 10:45 49.03721 10.67822 31201 ft 508 kts 136°
2026-04-17 10:45 49.01178 10.71563 31498 ft 507 kts 136°
2026-04-17 10:46 48.98638 10.75294 31809 ft 506 kts 136°
2026-04-17 10:46 48.96104 10.79010 32065 ft 506 kts 136°
2026-04-17 10:46 48.93564 10.82728 32319 ft 507 kts 136°
2026-04-17 10:46 48.91029 10.86439 32586 ft 507 kts 136°
2026-04-17 10:47 48.88490 10.90159 32826 ft 507 kts 136°
2026-04-17 10:47 48.85951 10.93873 33067 ft 506 kts 136°
2026-04-17 10:47 48.83413 10.97578 33333 ft 506 kts 136°
2026-04-17 10:47 48.80871 11.01283 33541 ft 507 kts 136°
2026-04-17 10:48 48.78324 11.04991 33760 ft 508 kts 136°
2026-04-17 10:48 48.75774 11.08701 34028 ft 507 kts 136°
2026-04-17 10:48 48.73234 11.12385 34295 ft 506 kts 136°
2026-04-17 10:48 48.70722 11.16012 34515 ft 506 kts 136°
2026-04-17 10:49 48.68183 11.19691 34720 ft 505 kts 135°
2026-04-17 10:49 48.65878 11.23698 34915 ft 505 kts 126°
2026-04-17 10:49 48.64030 11.28193 35114 ft 503 kts 115°
2026-04-17 10:49 48.62680 11.33064 35224 ft 503 kts 108°
2026-04-17 10:50 48.61521 11.38072 35247 ft 505 kts 106°
2026-04-17 10:50 48.59399 11.48183 35239 ft 503 kts 105°
2026-04-17 10:51 48.57336 11.58278 35239 ft 503 kts 103°
2026-04-17 10:51 48.55748 11.68467 35241 ft 502 kts 100°
2026-04-17 10:52 48.54247 11.78739 35245 ft 502 kts 99°
2026-04-17 10:52 48.52751 11.89034 35243 ft 502 kts 100°
2026-04-17 10:53 48.51239 11.99326 35243 ft 503 kts 100°
2026-04-17 10:53 48.49712 12.09607 35242 ft 502 kts 100°
2026-04-17 10:54 48.48178 12.19881 35249 ft 503 kts 100°
2026-04-17 10:54 48.46618 12.30150 35240 ft 503 kts 100°
2026-04-17 10:55 48.45312 12.38702 35242 ft 503 kts 100°
2026-04-17 10:55 48.43737 12.48973 35240 ft 503 kts 100°
2026-04-17 10:56 48.42155 12.59231 35234 ft 503 kts 100°
2026-04-17 10:56 48.40564 12.69493 35232 ft 503 kts 100°
2026-04-17 10:57 48.38619 12.79627 35236 ft 505 kts 106°
2026-04-17 10:57 48.36345 12.89629 35236 ft 506 kts 107°
2026-04-17 10:58 48.34010 12.99599 35230 ft 505 kts 107°
2026-04-17 10:58 48.31670 13.09546 35237 ft 505 kts 107°
2026-04-17 10:59 48.29332 13.19483 35236 ft 505 kts 107°
2026-04-17 10:59 48.26993 13.29415 35236 ft 505 kts 107°
2026-04-17 11:00 48.24655 13.39273 35255 ft 505 kts 107°
2026-04-17 11:00 48.22288 13.49208 35240 ft 506 kts 107°
2026-04-17 11:01 48.19914 13.59152 35239 ft 507 kts 107°
2026-04-17 11:01 48.17525 13.69084 35240 ft 507 kts 107°
2026-04-17 11:02 48.15126 13.79014 35253 ft 507 kts 107°
2026-04-17 11:02 48.12720 13.88937 35240 ft 508 kts 107°
2026-04-17 11:03 48.10316 13.98808 35240 ft 508 kts 107°
2026-04-17 11:03 48.07889 14.08726 35239 ft 508 kts 107°
2026-04-17 11:04 48.05456 14.18631 35252 ft 508 kts 107°
2026-04-17 11:04 48.03008 14.28550 35241 ft 509 kts 107°
2026-04-17 11:05 48.00549 14.38470 35245 ft 509 kts 107°
2026-04-17 11:05 47.98078 14.48392 35243 ft 509 kts 107°
2026-04-17 11:06 47.95599 14.58301 35256 ft 510 kts 107°
2026-04-17 11:06 47.93110 14.68209 35238 ft 511 kts 107°
2026-04-17 11:07 47.90623 14.78063 35244 ft 511 kts 107°
2026-04-17 11:07 47.88112 14.87974 35238 ft 511 kts 107°
2026-04-17 11:08 47.85594 14.97871 35252 ft 511 kts 108°
2026-04-17 11:08 47.83064 15.07775 35242 ft 512 kts 107°
2026-04-17 11:09 47.80525 15.17664 35236 ft 512 kts 108°
2026-04-17 11:09 47.77976 15.27549 35240 ft 512 kts 108°
2026-04-17 11:10 47.74133 15.42370 35232 ft 513 kts 107°
2026-04-17 11:10 47.71555 15.52256 35229 ft 513 kts 108°
2026-04-17 11:11 47.68988 15.62064 35224 ft 513 kts 108°
2026-04-17 11:11 47.66397 15.71922 35246 ft 513 kts 108°
2026-04-17 11:12 47.63797 15.81778 35224 ft 514 kts 108°
2026-04-17 11:12 47.61181 15.91644 35209 ft 514 kts 108°
2026-04-17 11:13 47.58559 16.01494 35220 ft 514 kts 108°
2026-04-17 11:13 47.55924 16.11347 35218 ft 515 kts 108°
2026-04-17 11:14 47.53277 16.21209 35208 ft 516 kts 108°
2026-04-17 11:14 47.50635 16.31009 35208 ft 516 kts 108°
2026-04-17 11:15 47.47966 16.40866 35208 ft 516 kts 108°
2026-04-17 11:15 47.45291 16.50706 35184 ft 516 kts 108°
2026-04-17 11:16 47.42607 16.60537 35199 ft 515 kts 108°
2026-04-17 11:16 47.40164 16.70441 35199 ft 513 kts 104°
2026-04-17 11:17 47.37918 16.80419 35200 ft 512 kts 104°
2026-04-17 11:17 47.35643 16.90377 35203 ft 513 kts 105°
2026-04-17 11:18 47.33311 17.00334 35197 ft 514 kts 105°
2026-04-17 11:18 47.30952 17.10278 35194 ft 514 kts 105°
2026-04-17 11:19 47.28599 17.20143 35189 ft 514 kts 105°
2026-04-17 11:19 47.26221 17.30078 35188 ft 514 kts 105°
2026-04-17 11:20 47.23853 17.40004 35186 ft 514 kts 105°
2026-04-17 11:20 47.21533 17.49951 35186 ft 514 kts 105°
2026-04-17 11:21 47.19211 17.59894 35200 ft 514 kts 105°
2026-04-17 11:21 47.16870 17.69824 35185 ft 514 kts 105°
2026-04-17 11:22 47.14520 17.79729 35182 ft 514 kts 105°
2026-04-17 11:22 47.12153 17.89649 35176 ft 514 kts 105°
2026-04-17 11:23 47.09798 17.99480 35187 ft 514 kts 105°
2026-04-17 11:23 47.07418 18.09373 35171 ft 514 kts 105°
2026-04-17 11:24 47.05026 18.19268 35170 ft 514 kts 105°
2026-04-17 11:24 47.02548 18.29116 35163 ft 515 kts 107°
2026-04-17 11:25 47.00010 18.38934 35163 ft 515 kts 107°
2026-04-17 11:25 46.97476 18.48738 35159 ft 515 kts 107°
2026-04-17 11:26 46.94946 18.58535 35161 ft 515 kts 107°
2026-04-17 11:26 46.92411 18.68332 35161 ft 515 kts 107°
2026-04-17 11:27 46.89868 18.78121 35160 ft 514 kts 108°
2026-04-17 11:27 46.87319 18.87887 35164 ft 514 kts 108°
2026-04-17 11:28 46.84764 18.97636 35162 ft 514 kts 108°
2026-04-17 11:28 46.82214 19.07325 35159 ft 514 kts 108°
2026-04-17 11:29 46.79644 19.17050 35150 ft 513 kts 108°
2026-04-17 11:29 46.77069 19.26750 35167 ft 513 kts 108°
2026-04-17 11:30 46.74485 19.36447 35155 ft 513 kts 108°
2026-04-17 11:30 46.71891 19.46141 35150 ft 513 kts 109°
2026-04-17 11:31 46.69294 19.55807 35152 ft 511 kts 109°
2026-04-17 11:31 46.66698 19.65429 35153 ft 511 kts 109°
2026-04-17 11:32 46.64090 19.75053 35150 ft 511 kts 109°
2026-04-17 11:32 46.61478 19.84661 35146 ft 511 kts 110°
2026-04-17 11:33 46.58855 19.94264 35140 ft 510 kts 110°
2026-04-17 11:33 46.56229 20.03841 35140 ft 510 kts 110°
2026-04-17 11:34 46.53594 20.13411 35136 ft 510 kts 110°
2026-04-17 11:34 46.50950 20.22978 35129 ft 510 kts 110°
2026-04-17 11:35 46.48319 20.32458 35126 ft 510 kts 110°
2026-04-17 11:35 46.45655 20.42020 35132 ft 510 kts 110°
2026-04-17 11:36 46.42987 20.51560 35139 ft 510 kts 111°
2026-04-17 11:36 46.40312 20.61087 35131 ft 509 kts 111°
2026-04-17 11:37 46.37633 20.70590 35127 ft 509 kts 111°
2026-04-17 11:37 46.34947 20.80078 35124 ft 510 kts 111°
2026-04-17 11:38 46.32252 20.89566 35127 ft 509 kts 111°
2026-04-17 11:38 46.29552 20.99029 35125 ft 508 kts 112°
2026-04-17 11:39 46.26866 21.08413 35126 ft 508 kts 112°
2026-04-17 11:39 46.24130 21.17840 35129 ft 508 kts 112°
2026-04-17 11:40 46.21331 21.27220 35130 ft 508 kts 113°
2026-04-17 11:40 46.18520 21.36595 35125 ft 508 kts 113°
2026-04-17 11:41 46.15713 21.45961 35125 ft 508 kts 113°
2026-04-17 11:41 46.12904 21.55315 35116 ft 508 kts 113°
2026-04-17 11:42 46.10091 21.64655 35092 ft 507 kts 114°
2026-04-17 11:42 46.07276 21.73960 35094 ft 507 kts 114°
2026-04-17 11:43 46.04455 21.83252 35090 ft 507 kts 114°
2026-04-17 11:43 46.01623 21.92546 35089 ft 507 kts 114°
2026-04-17 11:44 45.98793 22.01803 35084 ft 505 kts 114°
2026-04-17 11:44 45.95955 22.11047 35088 ft 505 kts 115°
2026-04-17 11:45 45.93110 22.20278 35085 ft 505 kts 115°
2026-04-17 11:45 45.90280 22.29433 35087 ft 505 kts 115°
2026-04-17 11:46 45.87423 22.38639 35084 ft 504 kts 115°
2026-04-17 11:46 45.84562 22.47824 35080 ft 504 kts 115°
2026-04-17 11:47 45.81693 22.57002 35085 ft 504 kts 115°
2026-04-17 11:47 45.78819 22.66165 35077 ft 504 kts 116°
2026-04-17 11:48 45.75943 22.75302 35082 ft 503 kts 116°
2026-04-17 11:48 45.73056 22.84439 35075 ft 503 kts 116°
2026-04-17 11:49 45.70647 22.92035 35077 ft 504 kts 116°
2026-04-17 11:49 45.67750 23.01147 35078 ft 503 kts 116°
2026-04-17 11:50 45.64372 23.11729 35076 ft 503 kts 116°
2026-04-17 11:50 45.61934 23.19339 35076 ft 503 kts 116°
2026-04-17 11:51 45.59014 23.28426 35070 ft 503 kts 116°
2026-04-17 11:51 45.56114 23.37419 35076 ft 501 kts 116°
2026-04-17 11:52 45.53194 23.46440 35075 ft 501 kts 117°
2026-04-17 11:52 45.50269 23.55446 35071 ft 501 kts 117°
2026-04-17 11:53 45.47338 23.64440 35055 ft 500 kts 117°
2026-04-17 11:53 45.44393 23.73446 35068 ft 501 kts 117°
2026-04-17 11:54 45.41448 23.82421 35067 ft 500 kts 117°
2026-04-17 11:54 45.38494 23.91392 35063 ft 500 kts 117°
2026-04-17 11:55 45.35554 24.00289 35056 ft 499 kts 117°
2026-04-17 11:55 45.32596 24.09217 35052 ft 499 kts 117°
2026-04-17 11:56 45.29629 24.18136 35053 ft 499 kts 117°
2026-04-17 11:56 45.26660 24.27039 35048 ft 499 kts 118°
2026-04-17 11:57 45.23680 24.35939 35052 ft 499 kts 118°
2026-04-17 11:57 45.20691 24.44832 35045 ft 499 kts 118°
2026-04-17 11:58 45.17693 24.53720 35042 ft 499 kts 118°
2026-04-17 11:58 45.14686 24.62608 35038 ft 501 kts 118°
2026-04-17 11:59 45.11660 24.71521 35041 ft 502 kts 118°
2026-04-17 11:59 45.08628 24.80427 35041 ft 502 kts 118°
2026-04-17 12:00 45.05593 24.89311 35031 ft 502 kts 118°
2026-04-17 12:00 45.02569 24.98131 35046 ft 501 kts 119°
2026-04-17 12:01 44.99526 25.06978 35042 ft 501 kts 119°
2026-04-17 12:01 44.96473 25.15824 35047 ft 501 kts 119°
2026-04-17 12:02 44.93416 25.24654 35046 ft 500 kts 119°
2026-04-17 12:02 44.90363 25.33442 35050 ft 498 kts 118°
2026-04-17 12:03 44.87309 25.42208 35052 ft 497 kts 119°
2026-04-17 12:03 44.84255 25.50941 35056 ft 497 kts 119°
2026-04-17 12:04 44.81193 25.59671 35056 ft 496 kts 118°
2026-04-17 12:04 44.78131 25.68371 35056 ft 496 kts 119°
2026-04-17 12:05 44.75064 25.77059 35065 ft 496 kts 119°
2026-04-17 12:05 44.72008 25.85687 35062 ft 496 kts 118°
2026-04-17 12:06 44.68933 25.94343 35073 ft 494 kts 118°
2026-04-17 12:06 44.65856 26.02974 35075 ft 494 kts 118°
2026-04-17 12:07 44.62776 26.11589 35075 ft 494 kts 119°
2026-04-17 12:07 44.59688 26.20197 35075 ft 493 kts 118°
2026-04-17 12:08 44.56602 26.28776 35062 ft 492 kts 118°
2026-04-17 12:08 44.53528 26.37290 35064 ft 492 kts 119°
2026-04-17 12:09 44.50427 26.45856 35067 ft 492 kts 119°
2026-04-17 12:09 44.47323 26.54403 35067 ft 492 kts 119°
2026-04-17 12:10 44.44211 26.62944 35064 ft 492 kts 119°
2026-04-17 12:10 44.41093 26.71474 35067 ft 492 kts 119°
2026-04-17 12:11 44.37970 26.79992 35064 ft 492 kts 119°
2026-04-17 12:12 44.33277 26.92745 35064 ft 492 kts 119°
2026-04-17 12:12 44.30137 27.01243 35064 ft 492 kts 119°
2026-04-17 12:13 44.26990 27.09737 35058 ft 493 kts 120°
2026-04-17 12:13 44.23848 27.18188 35057 ft 495 kts 120°
2026-04-17 12:14 44.20674 27.26701 35057 ft 495 kts 120°
2026-04-17 12:14 44.17490 27.35214 35073 ft 495 kts 120°
2026-04-17 12:15 44.14300 27.43718 35055 ft 495 kts 120°
2026-04-17 12:15 44.11103 27.52214 35068 ft 495 kts 120°
2026-04-17 12:16 44.07899 27.60701 35054 ft 496 kts 121°
2026-04-17 12:16 44.04689 27.69182 35063 ft 495 kts 121°
2026-04-17 12:17 44.01475 27.77645 35068 ft 495 kts 121°
2026-04-17 12:17 43.98260 27.86087 35065 ft 495 kts 121°
2026-04-17 12:18 43.95032 27.94534 35066 ft 495 kts 121°
2026-04-17 12:18 43.91808 28.02949 35074 ft 494 kts 121°
2026-04-17 12:19 43.88602 28.11290 35075 ft 493 kts 121°
2026-04-17 12:19 43.85373 28.19666 35082 ft 493 kts 121°
2026-04-17 12:20 43.82136 28.28038 35079 ft 493 kts 121°
2026-04-17 12:20 43.78900 28.36381 35089 ft 491 kts 121°
2026-04-17 12:21 43.75668 28.44692 35092 ft 491 kts 121°
2026-04-17 12:21 43.72407 28.52979 35090 ft 490 kts 123°
2026-04-17 12:22 43.68784 28.60937 35081 ft 487 kts 127°
2026-04-17 12:22 43.65053 28.68736 35085 ft 486 kts 127°
2026-04-17 12:23 43.61360 28.76567 35066 ft 487 kts 126°
2026-04-17 12:23 43.57707 28.84415 35070 ft 486 kts 126°
2026-04-17 12:24 43.54061 28.92266 35072 ft 486 kts 126°
2026-04-17 12:24 43.50412 29.00100 35061 ft 486 kts 126°
2026-04-17 12:25 43.46754 29.07927 35056 ft 486 kts 126°
2026-04-17 12:25 43.43092 29.15738 35061 ft 485 kts 126°
2026-04-17 12:26 43.39428 29.23535 35056 ft 485 kts 126°
2026-04-17 12:26 43.35759 29.31320 35053 ft 485 kts 126°
2026-04-17 12:27 43.32087 29.39090 35041 ft 485 kts 126°
2026-04-17 12:27 43.28443 29.46784 35048 ft 484 kts 126°
2026-04-17 12:28 43.24770 29.54515 35042 ft 484 kts 126°
2026-04-17 12:28 43.21093 29.62238 35034 ft 483 kts 126°
2026-04-17 12:29 43.17411 29.69948 35034 ft 483 kts 126°
2026-04-17 12:29 43.13719 29.77660 35034 ft 483 kts 127°
2026-04-17 12:30 43.10027 29.85352 35030 ft 483 kts 126°
2026-04-17 12:30 43.06336 29.93022 35026 ft 481 kts 127°
2026-04-17 12:31 43.02653 30.00657 35030 ft 481 kts 127°
2026-04-17 12:31 42.98969 30.08271 35023 ft 480 kts 127°
2026-04-17 12:32 42.95279 30.15879 35018 ft 480 kts 127°
2026-04-17 12:32 42.91591 30.23465 35012 ft 479 kts 127°
2026-04-17 12:33 42.87903 30.31031 35012 ft 479 kts 127°
2026-04-17 12:33 42.84211 30.38586 35010 ft 479 kts 127°
2026-04-17 12:34 42.80514 30.46132 35000 ft 478 kts 127°
2026-04-17 12:34 42.76840 30.53613 34999 ft 478 kts 127°
2026-04-17 12:35 42.73621 30.61546 34996 ft 483 kts 113°
2026-04-17 12:35 42.71508 30.70245 34993 ft 485 kts 109°
2026-04-17 12:37 42.63850 31.05538 34977 ft 486 kts 109°
2026-04-17 12:38 42.61912 31.14276 34982 ft 486 kts 110°
2026-04-17 12:38 42.59957 31.23062 34977 ft 486 kts 110°
2026-04-17 12:39 42.57995 31.31848 34974 ft 486 kts 110°
2026-04-17 12:39 42.56029 31.40619 34972 ft 486 kts 110°
2026-04-17 12:40 42.54375 31.47970 34967 ft 486 kts 110°
2026-04-17 12:40 42.52393 31.56741 34963 ft 486 kts 110°
2026-04-17 12:41 42.50405 31.65511 34963 ft 487 kts 110°
2026-04-17 12:41 42.48411 31.74269 34954 ft 487 kts 110°
2026-04-17 12:42 42.46409 31.83026 34952 ft 487 kts 110°
2026-04-17 12:42 42.44400 31.91781 34952 ft 487 kts 110°
2026-04-17 12:43 42.42385 32.00526 34947 ft 487 kts 110°
2026-04-17 12:43 42.40362 32.09270 34948 ft 487 kts 110°
2026-04-17 12:44 42.38329 32.18024 34949 ft 488 kts 110°
2026-04-17 12:44 42.36293 32.26760 34943 ft 487 kts 111°
2026-04-17 12:45 42.34247 32.35500 34931 ft 487 kts 111°
2026-04-17 12:45 42.32193 32.44242 34933 ft 488 kts 111°
2026-04-17 12:46 42.30132 32.52982 34930 ft 488 kts 111°
2026-04-17 12:46 42.28062 32.61721 34923 ft 489 kts 111°
2026-04-17 12:47 42.25984 32.70466 34922 ft 489 kts 111°
2026-04-17 12:47 42.23914 32.79140 34921 ft 489 kts 111°
2026-04-17 12:48 42.21826 32.87859 34919 ft 489 kts 111°
2026-04-17 12:48 42.19729 32.96582 34909 ft 489 kts 111°
2026-04-17 12:49 42.17623 33.05303 34928 ft 490 kts 111°
2026-04-17 12:49 42.15507 33.14037 34917 ft 490 kts 111°
2026-04-17 12:50 42.13384 33.22770 34922 ft 490 kts 111°
2026-04-17 12:50 42.11254 33.31495 34916 ft 490 kts 111°
2026-04-17 12:51 42.09121 33.40200 34916 ft 489 kts 111°
2026-04-17 12:51 42.06980 33.48905 34910 ft 489 kts 111°
2026-04-17 12:52 42.04849 33.57535 34906 ft 489 kts 111°
2026-04-17 12:52 42.02694 33.66231 34908 ft 490 kts 111°
2026-04-17 12:53 42.00531 33.74926 34908 ft 490 kts 112°
2026-04-17 12:53 41.98368 33.83595 34911 ft 488 kts 112°
2026-04-17 12:54 41.96202 33.92239 34904 ft 488 kts 112°
2026-04-17 12:54 41.94027 34.00886 34916 ft 488 kts 112°
2026-04-17 12:55 41.91847 34.09523 34911 ft 488 kts 112°
2026-04-17 12:55 41.89659 34.18159 34911 ft 488 kts 112°
2026-04-17 12:56 41.87466 34.26783 34905 ft 488 kts 112°
2026-04-17 12:56 41.85268 34.35397 34897 ft 488 kts 112°
2026-04-17 12:57 41.83064 34.44004 34903 ft 488 kts 112°
2026-04-17 12:57 41.80854 34.52602 34901 ft 488 kts 112°
2026-04-17 12:58 41.78633 34.61214 34900 ft 489 kts 112°
2026-04-17 12:58 41.76398 34.69844 34912 ft 490 kts 112°
2026-04-17 12:59 41.74175 34.78400 34908 ft 490 kts 112°
2026-04-17 12:59 41.71932 34.87009 34915 ft 490 kts 112°
2026-04-17 13:00 41.69675 34.95635 34926 ft 491 kts 112°
2026-04-17 13:00 41.67406 35.04272 34934 ft 492 kts 112°
2026-04-17 13:01 41.65131 35.12909 34944 ft 493 kts 112°
2026-04-17 13:01 41.62844 35.21555 34945 ft 494 kts 112°
2026-04-17 13:02 41.60548 35.30204 34951 ft 494 kts 112°
2026-04-17 13:02 41.58242 35.38857 34952 ft 494 kts 112°
2026-04-17 13:03 41.55934 35.47491 34951 ft 494 kts 112°
2026-04-17 13:03 41.53616 35.56141 34958 ft 495 kts 112°
2026-04-17 13:04 41.51289 35.64785 34957 ft 495 kts 112°
2026-04-17 13:04 41.48953 35.73434 34965 ft 495 kts 113°
2026-04-17 13:05 41.46612 35.82069 34969 ft 495 kts 113°
2026-04-17 13:05 41.44266 35.90696 34968 ft 495 kts 113°
2026-04-17 13:06 41.41929 35.99254 34977 ft 495 kts 113°
2026-04-17 13:06 41.39566 36.07881 34990 ft 496 kts 113°
2026-04-17 13:07 41.37197 36.16501 34997 ft 496 kts 113°
2026-04-17 13:07 41.34821 36.25120 34991 ft 496 kts 113°
2026-04-17 13:08 41.32437 36.33738 34996 ft 496 kts 113°
2026-04-17 13:08 41.30044 36.42357 35003 ft 497 kts 113°
2026-04-17 13:09 41.27647 36.50980 34995 ft 497 kts 112°
2026-04-17 13:09 41.26194 36.59989 34990 ft 501 kts 99°
2026-04-17 13:10 41.25435 36.69214 34986 ft 503 kts 97°
2026-04-17 13:10 41.24783 36.78480 34997 ft 503 kts 97°
2026-04-17 13:11 41.24117 36.87736 35000 ft 503 kts 97°
2026-04-17 13:11 41.23423 36.96991 35003 ft 503 kts 97°
2026-04-17 13:12 41.22714 37.06236 35001 ft 504 kts 97°
2026-04-17 13:12 41.21632 37.20129 34992 ft 504 kts 97°
2026-04-17 13:13 41.20930 37.29331 34994 ft 504 kts 97°
2026-04-17 13:13 41.20254 37.38603 34984 ft 504 kts 97°
2026-04-17 13:14 41.19572 37.47868 34997 ft 504 kts 97°
2026-04-17 13:14 41.18879 37.57130 34985 ft 504 kts 96°
2026-04-17 13:15 41.18340 37.66412 34989 ft 504 kts 96°
2026-04-17 13:15 41.17607 37.75658 34993 ft 504 kts 98°
2026-04-17 13:16 41.16779 37.84881 34993 ft 504 kts 98°
2026-04-17 13:16 41.15968 37.94128 35001 ft 504 kts 97°
2026-04-17 13:17 41.15228 38.03383 35025 ft 504 kts 97°
2026-04-17 13:17 41.14497 38.12637 35023 ft 504 kts 97°
2026-04-17 13:18 41.13748 38.21902 35026 ft 505 kts 97°
2026-04-17 13:18 41.12986 38.31168 35017 ft 505 kts 97°
2026-04-17 13:19 41.12221 38.40427 35012 ft 505 kts 97°
2026-04-17 13:19 41.11449 38.49698 35010 ft 505 kts 97°
2026-04-17 13:20 41.10668 38.58975 35001 ft 506 kts 97°
2026-04-17 13:20 41.09875 38.68248 34994 ft 506 kts 97°
2026-04-17 13:21 41.09054 38.77537 34989 ft 506 kts 97°
2026-04-17 13:21 41.08353 38.85235 35001 ft 506 kts 97°
2026-04-17 13:22 41.07362 38.96026 34973 ft 508 kts 97°
2026-04-17 13:22 41.06643 39.03824 34969 ft 509 kts 97°
2026-04-17 13:23 41.05781 39.13128 34976 ft 509 kts 97°
2026-04-17 13:23 41.04927 39.22420 34978 ft 508 kts 97°
2026-04-17 13:24 41.04074 39.31675 34983 ft 509 kts 97°
2026-04-17 13:24 41.03210 39.40968 35001 ft 509 kts 97°
2026-04-17 13:25 41.02336 39.50275 35002 ft 509 kts 97°
2026-04-17 13:25 41.01455 39.59566 35017 ft 509 kts 97°
2026-04-17 13:26 41.00565 39.68861 35021 ft 509 kts 97°
2026-04-17 13:26 40.99687 39.78168 35018 ft 509 kts 95°
2026-04-17 13:27 40.99332 39.87530 35017 ft 509 kts 91°
2026-04-17 13:27 40.99102 39.96893 35017 ft 509 kts 91°
2026-04-17 13:28 40.98887 40.06264 35007 ft 509 kts 91°
2026-04-17 13:28 40.98658 40.15630 35000 ft 509 kts 91°
2026-04-17 13:29 40.98417 40.24977 34990 ft 507 kts 91°
2026-04-17 13:29 40.98161 40.34304 34991 ft 507 kts 91°
2026-04-17 13:30 40.97894 40.43636 34995 ft 507 kts 91°
2026-04-17 13:30 40.97621 40.52968 34997 ft 507 kts 91°
2026-04-17 13:31 40.97345 40.62233 35003 ft 507 kts 91°
2026-04-17 13:31 40.97059 40.71555 35003 ft 507 kts 91°
2026-04-17 13:32 40.96765 40.80883 35021 ft 507 kts 91°
2026-04-17 13:32 40.96465 40.90208 35013 ft 507 kts 91°
2026-04-17 13:33 40.96162 40.99540 35025 ft 507 kts 91°
2026-04-17 13:33 40.95845 41.08853 35019 ft 507 kts 91°
2026-04-17 13:34 40.95521 41.18187 35032 ft 508 kts 91°
2026-04-17 13:34 40.95187 41.27504 35029 ft 507 kts 91°
2026-04-17 13:35 40.94846 41.36828 35029 ft 508 kts 91°
2026-04-17 13:35 40.94503 41.46177 35023 ft 509 kts 91°
2026-04-17 13:36 40.94150 41.55529 35027 ft 509 kts 91°
2026-04-17 13:36 40.93782 41.64873 35036 ft 509 kts 91°
2026-04-17 13:37 40.93410 41.74220 35021 ft 509 kts 91°
2026-04-17 13:37 40.93034 41.83559 35024 ft 507 kts 91°
2026-04-17 13:38 40.92652 41.92878 35033 ft 508 kts 91°
2026-04-17 13:38 40.92263 42.02145 35029 ft 509 kts 91°
2026-04-17 13:39 40.91863 42.11484 35050 ft 509 kts 91°
2026-04-17 13:39 40.91456 42.20852 35049 ft 511 kts 91°
2026-04-17 13:40 40.91038 42.30247 35057 ft 512 kts 91°
2026-04-17 13:40 40.90613 42.39637 35065 ft 511 kts 91°
2026-04-17 13:41 40.90180 42.49015 35072 ft 511 kts 91°
2026-04-17 13:41 40.89741 42.58399 35066 ft 512 kts 91°
2026-04-17 13:42 40.89293 42.67796 35074 ft 512 kts 91°
2026-04-17 13:42 40.88836 42.77196 35079 ft 512 kts 91°
2026-04-17 13:43 40.88372 42.86590 35095 ft 512 kts 91°
2026-04-17 13:43 40.87901 42.95987 35086 ft 512 kts 91°
2026-04-17 13:44 40.87420 43.05404 35081 ft 514 kts 91°
2026-04-17 13:44 40.86935 43.14771 35091 ft 514 kts 91°
2026-04-17 13:45 40.86438 43.24204 35090 ft 514 kts 91°
2026-04-17 13:45 40.85934 43.33631 35099 ft 514 kts 91°
2026-04-17 13:46 40.85424 43.43058 35116 ft 515 kts 91°
2026-04-17 13:46 40.84904 43.52494 35105 ft 514 kts 91°
2026-04-17 13:47 40.84378 43.61909 35103 ft 514 kts 91°
2026-04-17 13:47 40.83852 43.71338 35102 ft 514 kts 90°
2026-04-17 13:48 40.83524 43.80757 35105 ft 514 kts 89°
2026-04-17 13:48 40.83273 43.90203 35107 ft 515 kts 89°
2026-04-17 13:49 40.82983 43.99664 35115 ft 516 kts 89°
2026-04-17 13:49 40.82663 44.09063 35120 ft 516 kts 89°
2026-04-17 13:50 40.82326 44.18515 35129 ft 516 kts 89°
2026-04-17 13:50 40.81982 44.27984 35134 ft 516 kts 89°
2026-04-17 13:51 40.81632 44.37457 35126 ft 517 kts 89°
2026-04-17 13:51 40.81272 44.46934 35153 ft 517 kts 89°
2026-04-17 13:52 40.80905 44.56398 35131 ft 516 kts 89°
2026-04-17 13:52 40.80532 44.65852 35128 ft 516 kts 89°
2026-04-17 13:53 40.80154 44.75325 35138 ft 518 kts 89°
2026-04-17 13:53 40.79765 44.84809 35137 ft 517 kts 89°
2026-04-17 13:54 40.79166 44.99040 35138 ft 518 kts 89°
2026-04-17 13:55 40.78545 45.13270 35138 ft 518 kts 89°
2026-04-17 13:56 40.77698 45.32278 35142 ft 519 kts 89°
2026-04-17 13:56 40.77264 45.41720 35144 ft 519 kts 89°
2026-04-17 13:57 40.77095 45.51206 35150 ft 513 kts 79°
2026-04-17 13:58 40.78378 45.65194 35137 ft 511 kts 77°
2026-04-17 13:58 40.79854 45.79156 35143 ft 512 kts 77°
2026-04-17 13:59 40.81284 45.93114 35140 ft 511 kts 77°
2026-04-17 14:00 40.82220 46.02420 35141 ft 511 kts 77°
2026-04-17 14:00 40.83149 46.11737 35141 ft 512 kts 77°
2026-04-17 14:01 40.84072 46.21076 35138 ft 513 kts 77°
2026-04-17 14:01 40.84988 46.30421 35140 ft 512 kts 78°
2026-04-17 14:02 40.85894 46.39752 35146 ft 512 kts 78°
2026-04-17 14:02 40.86793 46.49070 35144 ft 512 kts 78°
2026-04-17 14:03 40.87685 46.58407 35149 ft 512 kts 78°
2026-04-17 14:03 40.88565 46.67682 35143 ft 511 kts 79°
2026-04-17 14:04 40.89439 46.77001 35148 ft 510 kts 79°
2026-04-17 14:04 40.90685 46.86179 35160 ft 506 kts 73°
2026-04-17 14:05 40.92319 46.95226 35148 ft 506 kts 72°
2026-04-17 14:05 40.94006 47.04248 35156 ft 505 kts 72°
2026-04-17 14:06 40.95682 47.13268 35158 ft 505 kts 72°
2026-04-17 14:06 40.97345 47.22305 35157 ft 505 kts 72°
2026-04-17 14:07 40.98993 47.31336 35160 ft 505 kts 72°
2026-04-17 14:07 41.00356 47.38837 35159 ft 504 kts 73°
2026-04-17 14:08 41.01990 47.47867 35166 ft 504 kts 73°
2026-04-17 14:08 41.03618 47.56906 35161 ft 505 kts 73°
2026-04-17 14:09 41.05241 47.65958 35159 ft 505 kts 73°
2026-04-17 14:09 41.06868 47.75004 35236 ft 503 kts 73°
2026-04-17 14:10 41.08546 47.83980 35352 ft 501 kts 72°
2026-04-17 14:10 41.10319 47.92924 35305 ft 501 kts 72°
2026-04-17 14:11 41.12217 48.01841 35216 ft 503 kts 71°
2026-04-17 14:11 41.14218 48.10699 35335 ft 500 kts 70°
2026-04-17 14:12 41.16369 48.19443 35378 ft 498 kts 68°
2026-04-17 14:12 41.18680 48.28114 35330 ft 499 kts 66°
2026-04-17 14:13 41.22354 48.41054 35333 ft 498 kts 66°
2026-04-17 14:13 41.24881 48.49609 35336 ft 497 kts 65°
2026-04-17 14:14 41.27464 48.58135 35326 ft 497 kts 65°
2026-04-17 14:14 41.30083 48.66660 35264 ft 498 kts 64°
2026-04-17 14:15 41.32773 48.75138 35275 ft 497 kts 64°
2026-04-17 14:15 41.35479 48.83519 35320 ft 495 kts 64°
2026-04-17 14:16 41.37786 48.90609 35316 ft 496 kts 64°
2026-04-17 14:16 41.40555 48.99027 35271 ft 496 kts 63°
2026-04-17 14:17 41.43346 49.07429 35263 ft 496 kts 63°
2026-04-17 14:17 41.46152 49.15832 35291 ft 495 kts 63°
2026-04-17 14:18 41.48968 49.24225 35286 ft 495 kts 63°
2026-04-17 14:18 41.51789 49.32607 35237 ft 496 kts 63°
2026-04-17 14:19 41.54607 49.40947 35238 ft 495 kts 63°
2026-04-17 14:19 41.57449 49.49313 35295 ft 495 kts 63°
2026-04-17 14:20 41.60321 49.57655 35277 ft 494 kts 63°
2026-04-17 14:20 41.63227 49.65990 35255 ft 495 kts 62°
2026-04-17 14:21 41.66158 49.74308 35276 ft 495 kts 62°
2026-04-17 14:21 41.69104 49.82616 35300 ft 494 kts 62°
2026-04-17 14:22 41.72061 49.90926 35304 ft 494 kts 62°
2026-04-17 14:22 41.75030 49.99224 35279 ft 494 kts 62°
2026-04-17 14:23 41.78002 50.07455 35297 ft 494 kts 62°
2026-04-17 14:23 41.81023 50.15701 35354 ft 493 kts 62°
2026-04-17 14:24 41.84077 50.23920 35357 ft 492 kts 61°
2026-04-17 14:24 41.87165 50.32122 35323 ft 493 kts 61°
2026-04-17 14:25 41.90293 50.40323 35368 ft 492 kts 61°
2026-04-17 14:25 41.93439 50.48465 35399 ft 491 kts 60°
2026-04-17 14:26 41.96598 50.56546 35386 ft 492 kts 60°
2026-04-17 14:26 41.99825 50.64705 35391 ft 491 kts 60°
2026-04-17 14:27 42.03044 50.72744 35433 ft 490 kts 60°
2026-04-17 14:27 42.06325 50.80846 35426 ft 491 kts 59°
2026-04-17 14:28 42.09620 50.88888 35426 ft 491 kts 59°